This demonstration page uses our WeatherBlox Daily Observations layout. Learn more.

Left ArrowRight Arrow

Hourly Observations for May 1, 2018

Temp ( °F °C ) Dew Point ( °F °C ) Humidity (%) Winds ( mph kmh ) Pressure ( in mb ) Visibility ( mi km ) Precip ( " mm )
12:15 am 00:15 Clear 52 11.1 31 -0.6 45 45 S 7 11 30.09 1019 10 16 0.00 0.00
12:35 am 00:35 Clear 54 12.1 30 -1.3 40 40 S 8 13 30.09 1019 10 16 0.00 0.00
12:55 am 00:55 Clear 53 11.5 31 -0.8 43 43 S 7 11 30.09 1019 10 16 0.00 0.00
1:15 am 01:15 Clear 52 11.2 31 -0.7 44 44 S 6 9 30.09 1019 10 16 0.00 0.00
1:35 am 01:35 Clear 53 11.9 30 -1.1 41 41 S 8 13 30.09 1019 10 16 0.00 0.00
1:55 am 01:55 Clear 52 10.9 31 -0.7 45 45 S 6 9 30.09 1019 10 16 0.00 0.00
2:15 am 02:15 Clear 51 10.7 31 -0.5 46 46 S 6 9 30.09 1019 10 16 0.00 0.00
2:35 am 02:35 Clear 51 10.3 30 -1 46 46 S 7 11 30.09 1019 10 16 0.00 0.00
2:55 am 02:55 Clear 51 10.7 31 -0.5 46 46 S 7 11 30.09 1019 10 16 0.00 0.00
3:15 am 03:15 Clear 49 9.6 32 0 52 52 S 6 9 30.09 1019 10 16 0.00 0.00
3:35 am 03:35 Clear 48 8.9 32 -0.2 53 53 SSE 6 9 30.09 1019 10 16 0.00 0.00
4:15 am 04:15 Clear 47 8.5 33 0.4 57 57 S 6 9 30.09 1019 10 16 0.00 0.00
4:35 am 04:35 Clear 49 9.4 32 0 52 52 S 7 11 30.09 1019 10 16 0.00 0.00
4:55 am 04:55 Clear 46 8 32 0.1 58 58 S 6 9 30.09 1019 10 16 0.00 0.00
5:15 am 05:15 Clear 47 8.3 32 0.2 57 57 S 5 7 30.12 1020 10 16 0.00 0.00
5:35 am 05:35 Clear 47 8.3 32 0 56 56 S 5 7 30.12 1020 10 16 0.00 0.00
6:00 am 06:00 Clear 46 8 32 0.1 58 58 S 5 7 30.12 1020 10 16 0.00 0.00
6:15 am 06:15 Clear 45 7.4 32 0.1 60 60 S 5 7 30.12 1020 10 16 0.00 0.00
6:35 am 06:35 Clear 44 6.7 32 0.1 63 63 S 5 7 30.12 1020 10 16 0.00 0.00
6:55 am 06:55 Sunny 46 7.5 32 0.2 60 60 Calm 30.12 1020 10 16 0.00 0.00
7:10 am 07:10 Sunny 46 8 32 0 57 57 S 3 6 30.12 1020 10 16 0.00 0.00
7:35 am 07:35 Sunny 47 8.3 32 0 56 56 S 5 7 30.12 1020 10 16 0.00 0.00
7:55 am 07:55 Sunny 48 9.1 35 1.8 61 61 S 5 7 30.15 1021 10 16 0.00 0.00
8:15 am 08:15 Sunny 53 11.8 38 3.1 56 56 S 6 9 30.12 1020 10 16 0.00 0.00
8:35 am 08:35 Sunny 57 13.7 37 2.5 47 47 S 7 11 30.09 1019 10 16 0.00 0.00
8:55 am 08:55 Sunny 59 15 37 2.5 43 43 S 8 13 30.09 1019 10 16 0.00 0.00
9:20 am 09:20 Sunny 63 17 37 2.6 38 38 SSW 10 17 30.09 1019 10 16 0.00 0.00
9:35 am 09:35 Sunny 64 17.9 37 2.7 36 36 SSW 10 17 30.09 1019 10 16 0.00 0.00
9:55 am 09:55 Sunny 65 18.6 38 3.1 36 36 SSW 12 19 30.12 1020 10 16 0.00 0.00
10:15 am 10:15 Sunny 67 19.5 38 3.6 35 35 SW 13 20 30.12 1020 10 16 0.00 0.00
10:35 am 10:35 Sunny 69 20.3 39 3.8 34 34 SW 12 19 30.12 1020 10 16 0.00 0.00
10:55 am 10:55 Sunny 70 21.3 39 3.9 32 32 SSW 12 19 30.12 1020 10 16 0.00 0.00
11:15 am 11:15 Sunny 72 22.4 39 4.1 30 30 WSW 16 26 30.09 1019 10 16 0.00 0.00
11:35 am 11:35 Sunny 73 22.5 39 4 30 30 WSW 15 24 30.09 1019 10 16 0.00 0.00
11:55 am 11:55 Sunny 74 23.1 40 4.7 30 30 SW 13 20 30.06 1018 10 16 0.00 0.00
12:15 pm 12:15 Sunny 75 23.7 41 5.1 30 30 SW 14 22 30.06 1018 10 16 0.00 0.00
12:35 pm 12:35 Sunny 76 24.3 42 5.7 30 30 SSW 13 20 30.06 1018 10 16 0.00 0.00
12:55 pm 12:55 Sunny 76 24.4 43 6 31 31 SSW 12 19 30.06 1018 10 16 0.00 0.00
1:15 pm 13:15 Sunny 77 24.8 44 6.8 32 32 S 14 22 30.06 1018 10 16 0.00 0.00
1:35 pm 13:35 Sunny 77 25 45 7.2 32 32 S 17 28 30.06 1018 10 16 0.00 0.00
1:55 pm 13:55 Sunny 78 25.4 46 7.8 33 33 SW 13 20 30.06 1018 10 16 0.00 0.00
2:15 pm 14:15 Sunny 78 25.5 46 8 33 33 SW 15 24 30.03 1017 10 16 0.00 0.00
2:35 pm 14:35 Sunny 79 26 45 7.1 30 30 SW 15 24 30.03 1017 10 16 0.00 0.00
2:55 pm 14:55 Sunny 79 25.9 44 6.7 29 29 SSW 17 28 30.03 1017 10 16 0.00 0.00
3:15 pm 15:15 Sunny 79 26.2 44 6.9 29 29 S 13 20 30.03 1017 10 16 0.00 0.00
3:35 pm 15:35 Sunny 80 26.5 43 6.3 28 28 S 15 24 30.03 1017 10 16 0.00 0.00
3:55 pm 15:55 Sunny 79 26.3 42 5.8 27 27 SW 17 28 30.03 1017 10 16 0.00 0.00
4:15 pm 16:15 Sunny 80 26.4 42 5.4 26 26 SSW 17 28 30.03 1017 10 16 0.00 0.00
4:35 pm 16:35 Sunny 80 26.6 41 5.2 25 25 SW 18 30 30.03 1017 10 16 0.00 0.00
4:55 pm 16:55 Sunny 81 27 42 5.7 26 26 SSW 15 24 30.03 1017 10 16 0.00 0.00
5:15 pm 17:15 Sunny 80 26.4 40 4.2 24 24 SSW 15 24 30.03 1017 10 16 0.00 0.00
5:35 pm 17:35 Sunny 78 25.7 41 5.2 27 27 SW 15 24 30.03 1017 10 16 0.00 0.00
5:55 pm 17:55 Sunny 78 25.7 41 5.1 27 27 SW 13 20 30.03 1017 10 16 0.00 0.00
6:15 pm 18:15 Sunny 78 25.8 42 5.5 27 27 SSW 14 22 30.03 1017 10 16 0.00 0.00
6:35 pm 18:35 Sunny 78 25.5 42 5.7 28 28 SSW 15 24 30.03 1017 10 16 0.00 0.00
6:55 pm 18:55 Sunny 77 25 42 5.7 29 29 SSW 12 19 30.03 1017 10 16 0.00 0.00
7:15 pm 19:15 Sunny 76 24.6 42 5.5 29 29 SSW 14 22 30.03 1017 10 16 0.00 0.00
7:35 pm 19:35 Sunny 76 24.3 41 5.2 29 29 SSW 13 20 30.00 1016 10 16 0.00 0.00
7:55 pm 19:55 Sunny 68 20.2 28 -2.4 22 22 SW 7 11 30.09 1019 10 16 0.00 0.00
8:15 pm 20:15 Sunny 75 23.9 41 5.2 30 30 SSW 9 15 30.00 1016 10 16 0.00 0.00
8:35 pm 20:35 Sunny 74 23.3 41 4.9 30 30 SSW 13 20 30.00 1016 10 16 0.00 0.00
8:55 pm 20:55 Clear 72 22 41 5.1 33 33 SSW 10 17 30.00 1016 10 16 0.00 0.00
9:15 pm 21:15 Clear 70 20.9 42 5.3 36 36 SSW 9 15 30.03 1017 10 16 0.00 0.00
9:35 pm 21:35 Clear 68 20.2 42 5.5 38 38 S 8 13 30.03 1017 10 16 0.00 0.00
9:55 pm 21:55 Clear 67 19.2 42 5.6 41 41 S 9 15 30.03 1017 10 16 0.00 0.00
10:15 pm 22:15 Clear 67 19.3 42 5.7 41 41 S 9 15 30.03 1017 10 16 0.00 0.00
10:35 pm 22:35 Clear 67 19.2 42 5.5 41 41 S 9 15 30.03 1017 10 16 0.00 0.00
10:55 pm 22:55 Clear 66 19.1 42 5.4 41 41 S 9 15 30.06 1018 10 16 0.00 0.00
11:15 pm 23:15 Clear 66 19.1 42 5.6 41 41 S 10 17 30.06 1018 10 16 0.00 0.00
11:35 pm 23:35 Clear 68 20.1 42 5.7 39 39 SSW 10 17 30.06 1018 10 16 0.00 0.00
11:55 pm 23:55 Clear 68 20 43 5.9 40 40 SSW 12 19 30.06 1018 10 16 0.00 0.00

Powered by AerisWeather